#timestamp,LO_Frequency,Hit,StdDev 
1544310015.9,286046999.1,N
1544310035.7,286046998.2,N
1544310055.6,286046996.6,Y
1544310075.4,286046998.3,P
1544310095.2,286046998.5,N
1544310115.1,286047001.2,N
1544310116.0,286047001.2,N
1544310135.8,286046998.8,N
1544310155.7,286046998.8,N
1544310175.5,286046998.2,N
1544310195.3,286046999.3,N
1544310215.2,286046999.1,N
1544310235.9,286046998.4,N
1544310255.7,286046998.3,N
1544310275.6,286046998.1,N
1544310295.4,286046998.4,N
1544310315.3,286046998.8,N
1544310335.1,286046998.7,N
1544310336.0,286046998.7,N
1544310355.8,286047001.1,N
1544310375.7,286046998.1,N
1544310395.5,286046998.2,N
1544310415.3,286047001.2,N
1544310435.2,286047000.8,N
1544310455.0,286047000.1,N
1544310455.9,286047000.1,N
1544310475.8,286046999.7,N
1544310495.6,286047001.6,N
1544310515.4,286047002.2,N
1544310535.3,286047002.6,N
1544310555.1,286047002.5,N
1544310556.0,286047002.5,N
1544310575.8,286047002.2,N
1544310595.7,286047002.4,N
1544310615.5,286046999.7,N
1544310635.4,286047000.7,N
1544310655.2,286047000.9,N
1544310675.0,286047000.2,N
1544310675.9,286047000.2,N
1544310695.8,286047002.8,N
1544310715.6,286047000.9,N
1544310735.5,286047000.4,N
1544310755.3,286047000.2,N
1544310775.1,286047002.4,N
1544310795.9,286047001.0,N
1544310815.7,286047000.4,N
1544310835.5,286046999.9,N
1544310855.4,286047002.2,N
1544310875.2,286047002.3,N
1544310895.1,286047000.9,N
1544310896.0,286047000.9,N
1544310915.8,286047000.7,N
1544310935.6,286047000.5,N
1544310955.5,286046998.6,N
1544310975.3,286046999.1,N
1544310995.1,286046999.1,N
1544311015.9,286047001.1,N
1544311035.7,286047000.1,N
1544311055.6,286046999.7,N
1544311075.4,286046999.8,N
1544311095.2,286047000.7,N
1544311115.1,286047001.1,N
1544311116.0,286047001.1,N
1544311135.8,286046998.5,N
1544311155.7,286047000.4,N
1544311175.5,286046998.2,N
1544311195.3,286047001.1,N
1544311215.2,286047000.7,N
1544311235.0,286046998.1,N
1544311235.9,286046998.1,N
1544311255.8,286046998.2,N
1544311275.6,286046998.3,N
1544311295.4,286046998.9,N
1544311315.3,286046998.8,N
1544311335.1,286046999.2,N
1544311355.8,286046998.4,N
1544311375.7,286046998.9,N
1544311395.5,286046999.5,N
1544311415.4,286046996.9,N
1544311435.2,286046999.1,N
1544311455.0,286046998.9,N
1544311455.9,286046998.9,N
1544311475.8,286046998.8,N
1544311495.6,286046998.1,N
1544311515.5,286047000.3,N
1544311535.3,286047001.9,N
1544311555.1,286047001.5,N
1544311575.9,286047002.2,N
1544311595.7,286047002.4,N
1544311615.5,286047002.0,N
1544311635.4,286047002.3,N
1544311655.2,286047001.8,N
1544311675.1,286047000.1,N
1544311676.0,286047000.1,N
1544311695.8,286047002.0,N
1544311715.6,286047002.6,N
1544311735.4,286047002.4,N
1544311755.2,286047002.1,N
1544311775.1,286047004.0,N
1544311776.0,286047004.0,N
1544311795.8,286047000.2,N
1544311815.7,286047002.5,N
1544311835.4,286047002.7,N
1544311855.3,286047000.1,N
1544311875.1,286047002.4,N
1544311895.8,286046999.7,N
1544311915.7,286046999.8,N
1544311935.5,286047000.9,N
1544311955.4,286047000.2,N
1544311975.2,286046999.9,N
1544311995.0,286047000.6,N
1544311995.9,286047000.6,N
1544312015.8,286047000.4,N
1544312035.6,286046998.1,N
1544312055.5,286047000.3,N
1544312075.3,286047002.8,N
1544312095.1,286047002.7,N
1544312115.9,286047004.0,N
1544312135.7,286047001.4,N
1544312155.6,286047001.7,N
1544312175.4,286047002.5,N
1544312195.2,286047002.6,N
1544312215.1,286047002.5,N
1544312216.0,286047002.5,N
1544312235.8,286047002.7,N
1544312255.7,286046999.9,N
1544312275.5,286047000.9,N
1544312295.3,286047000.8,N
1544312315.2,286046998.2,N
1544312335.0,286046998.7,N
1544312335.9,286046998.7,N
1544312355.8,286046998.5,N
1544312375.6,286047001.2,N
1544312395.4,286046998.6,N
1544312415.3,286046998.7,N
1544312435.1,286046999.3,N
1544312455.9,286046998.9,N
1544312475.7,286046998.7,N
1544312495.5,286047001.1,N
1544312515.4,286046998.3,N
1544312535.2,286046998.9,N
1544312555.0,286046998.8,N
1544312556.0,286046998.8,N
1544312575.8,286046999.0,N
1544312595.6,286046998.7,N
1544312615.5,286047000.3,N
1544312635.3,286046999.9,N
1544312655.1,286047002.3,N
1544312675.9,286047002.8,N
1544312695.7,286047000.6,N
1544312715.6,286047000.7,N
1544312735.4,286047000.9,N
1544312755.2,286046998.8,N
1544312775.1,286046998.6,N
1544312776.0,286046998.6,N
1544312795.8,286046998.1,N
1544312815.7,286046998.3,N
1544312835.5,286046999.1,N
1544312855.3,286046999.3,N
1544312875.2,286047001.0,N
1544312895.0,286046999.4,N
1544312895.9,286046999.4,N
1544312915.8,286047000.5,N
1544312935.6,286047000.8,N
1544312955.4,286046999.7,N
1544312975.3,286047000.3,N
1544312995.1,286047002.7,N
1544313015.8,286047000.5,N
1544313035.7,286047001.1,N
1544313055.5,286046998.3,N
1544313075.4,286047000.0,N
1544313095.2,286047000.9,N
1544313115.0,286046999.7,N
1544313115.9,286046999.7,N
1544313135.8,286047000.4,N
1544313155.6,286046999.9,N
1544313175.5,286047000.2,N
1544313195.3,286046999.8,N
1544313215.1,286047000.3,N
1544313235.9,286047000.9,N
1544313255.7,286046999.7,N
1544313275.5,286047002.8,N
1544313295.4,286046999.7,N
1544313315.2,286046998.1,N
1544313335.1,286047000.6,N
1544313336.0,286047000.6,N
1544313355.8,286047002.0,N
1544313375.6,286047002.8,N
1544313395.5,286047002.8,N
1544313415.3,286047002.4,N
1544313435.2,286047004.3,Y
1544313455.9,286047002.2,P
1544313475.7,286047002.7,P
1544313495.6,286047002.6,N
1544313515.4,286047001.6,N
1544313535.3,286047001.8,N
1544313555.1,286047001.4,N
1544313556.0,286047001.4,N
1544313575.8,286047002.1,Y
1544313595.7,286046998.5,P
